"Pseudo-MPEC" for P22oVTI

Created 2026 Aug 17 23:35:16 UT using Find_Orb

Click here for an explanation of pseudo-MPECs

 
 Astrometry: 
     P22oVTI*0C2026 08 07.42767023 20 43.955+09 20 17.93   ~87D5 21.89wXNEOCPF52
     P22oVTI 0C2026 08 07.43847923 20 44.244+09 20 19.57   ~87D5 21.62wXNEOCPF52
     P22oVTI 0C2026 08 07.44926723 20 44.529+09 20 21.51   ~87D5 21.57wXNEOCPF52
     P22oVTI 0C2026 08 07.56611323 20 47.547+09 20 41.02   ~87HK 21.76GVNEOCPF51
     P22oVTI 0C2026 08 07.56694123 20 47.572+09 20 41.05   ~87HK 21.67GVNEOCPF51
     P22oVTI KC2026 08 08.32732023 21 10.82 +09 22 34.6    ~888Z 21.5 GVNEOCPH21
     P22oVTI KC2026 08 08.33030523 21 10.89 +09 22 34.7    ~888Z 21.6 GVNEOCPH21
     P22oVTI KC2026 08 08.33309823 21 10.96 +09 22 35.1    ~888Z 21.3 GVNEOCPH21
     P22oVTI !C2026 08 15.34848423 23 52.445+09 28 43.00   ~8F9Z 21.0 GWNEOCP673
     P22oVTI !C2026 08 15.38605323 23 52.930+09 28 42.74   ~8F9Z 20.7 GWNEOCP673
     P22oVTI 0C2026 08 15.42218423 23 53.267+09 28 41.20   ~8GL5 20.48rUNEOCPI41
     P22oVTI 0C2026 08 16.34224523 24 08.040+09 27 48.54   ~8GL5 21.24rUNEOCPI41
     P22oVTI 0C2026 08 16.43312823 24 08.845+09 27 41.97   ~8GL5 22.09gUNEOCPI41

Station data:
(673) Table Mountain Observatory, Wrightwood  (N34.381485 W117.682170)
   US/California.  Observers J. Chesley, J. Pittichova. Measurer W. M. Owen
   Jr. 0.61-m f/16 reflector + CCD.
(F51) Pan-STARRS 1, Haleakala  (N20.707234 W156.255910)  US/Hawaii.
   Observers J. Herman, T. Lowe, P. Minguez, A. Schultz, I. Smith. Measurers
   K. Chambers, T. de Boer, J. Fairlamb, H. Gao, M. Huber, C.-C. Lin, E.
   Magnier, Y. Ramanjooloo, R. Wainscoat, R. Weryk. 1.8-m Ritchey-Chrétien +
   CCD.
(F52) Pan-STARRS 2, Haleakala  (N20.707382 W156.255910)  US/Hawaii.
   Observers J. Herman, T. Lowe, P. Minguez, A. Schultz, I. Smith. Measurers
   K. Chambers, T. de Boer, J. Fairlamb, H. Gao, M. Huber, C.-C. Lin, E.
   Magnier, Y. Ramanjooloo, R. Wainscoat, R. Weryk. 1.8-m Ritchey-Chrétien +
   CCD.
(H21) Astronomical Research Observatory, Westfield  (N39.483054 W87.968270)
   US/Illinois.  Observer R. Holmes. Measurers S. Foglia, L. Buzzi, T.
   Linder, R. Holmes. 0.40-m f/5.32 astrograph + CCD.
(I41) Palomar Mountain--ZTF  (N33.357336 W116.859780)  US/California.
   Observers B. T. Bolin, Z. T. F. Collaboration. Measurers B. T. Bolin,
   Z.-Y. Lin, F. J. Masci. 1.2-m f/2.4 Schmidt.

Orbital elements:  P22oVTI
   Perihelion 2026 Sep 6.565860 +/- 3.15 TT = 13:34:50.3 (JD 2461290.065860)
Epoch 2026 Aug 16.0 TT = JDT 2461268.5   Earth MOID: 0.5439      AutoNEOCP
M 353.660961409 +/- 1.0             (J2000 ecliptic)
n   0.293938596 +/- 0.00608         Peri.  146.772818 +/- 2.2
a   2.240259385 +/- 0.0309          Node   200.483525 +/- 0.47
e   0.31032512 +/- 0.00692          Incl.    6.676815 +/- 0.029
P   3.35311                H 20.43  G  0.15   U  9.3
q 1.545050600 +/- 0.00582    Q 2.935468169 +/- 0.056
From 13 observations 2026 Aug. 7-16; mean residual 0".29
Residuals in arcseconds: 
260807 F52  .03+  .15+    260808 H21  .09+  .42+    260815 I41  .43-  .21+    
260807 F52  .02+  .09-    260808 H21  .02+  .08+    260816 I41  .59+  .20+    
260807 F52  .01-  .02-    260808 H21  .02+  .08+    260816 I41  .39-  .02+    
260807 F51  .05-  .00     260815 673  .26-  .85-    
260807 F51  .00   .10-    260815 673  .48+  .39+    

Ephemerides (geocentric):
Date (UTC) HH   RA             Dec           delta  r     elong  mag " sig PA
---- --------  ------------   ------------  ------ ------ -----  --- --------
2026 08 18 00  23 24 29.705   +09 25 20.03  .60212 1.5524 147.0 21.3 1.12  14
2026 08 18 01  23 24 30.196   +09 25 15.16  .60195 1.5523 147.0 21.3 1.15  14
2026 08 18 02  23 24 30.683   +09 25 10.24  .60178 1.5523 147.1 21.3 1.18  14
2026 08 18 03  23 24 31.168   +09 25 05.28  .60161 1.5523 147.1 21.3 1.20  14
2026 08 18 04  23 24 31.649   +09 25 00.26  .60144 1.5523 147.2 21.3 1.23  14
2026 08 18 05  23 24 32.127   +09 24 55.20  .60127 1.5522 147.2 21.3 1.26  14
2026 08 18 06  23 24 32.603   +09 24 50.08  .60110 1.5522 147.2 21.3 1.29  14
2026 08 18 07  23 24 33.075   +09 24 44.92  .60093 1.5522 147.3 21.3 1.32  14
2026 08 18 08  23 24 33.544   +09 24 39.71  .60076 1.5521 147.3 21.3 1.35  14
2026 08 18 09  23 24 34.011   +09 24 34.45  .60060 1.5521 147.3 21.3 1.38  14
2026 08 18 10  23 24 34.474   +09 24 29.14  .60043 1.5521 147.4 21.3 1.41  14
2026 08 18 11  23 24 34.934   +09 24 23.79  .60026 1.5520 147.4 21.3 1.44  14
2026 08 18 12  23 24 35.392   +09 24 18.38  .60009 1.5520 147.4 21.3 1.48  14
2026 08 18 13  23 24 35.846   +09 24 12.92  .59993 1.5520 147.5 21.3 1.51  14
2026 08 18 14  23 24 36.297   +09 24 07.42  .59976 1.5520 147.5 21.3 1.54  14
2026 08 18 15  23 24 36.746   +09 24 01.87  .59959 1.5519 147.6 21.3 1.57  14
2026 08 18 16  23 24 37.191   +09 23 56.27  .59943 1.5519 147.6 21.3 1.60  14
2026 08 18 17  23 24 37.633   +09 23 50.61  .59926 1.5519 147.6 21.3 1.64  14
2026 08 18 18  23 24 38.073   +09 23 44.92  .59909 1.5518 147.7 21.3 1.67  14
2026 08 18 19  23 24 38.509   +09 23 39.17  .59893 1.5518 147.7 21.3 1.70  14
2026 08 18 20  23 24 38.942   +09 23 33.37  .59876 1.5518 147.7 21.3 1.74  14
2026 08 18 21  23 24 39.373   +09 23 27.52  .59860 1.5517 147.8 21.3 1.77  14
2026 08 18 22  23 24 39.800   +09 23 21.63  .59843 1.5517 147.8 21.3 1.80  14
2026 08 18 23  23 24 40.225   +09 23 15.68  .59827 1.5517 147.9 21.3 1.84  14
2026 08 19 00  23 24 40.646   +09 23 09.69  .59810 1.5517 147.9 21.3 1.87  14
2026 08 19 01  23 24 41.065   +09 23 03.65  .59794 1.5516 147.9 21.3 1.91  14
2026 08 19 02  23 24 41.480   +09 22 57.55  .59777 1.5516 148.0 21.3 1.94  14
2026 08 19 03  23 24 41.893   +09 22 51.41  .59761 1.5516 148.0 21.3 1.98  14
2026 08 19 04  23 24 42.302   +09 22 45.22  .59745 1.5515 148.0 21.3 2.02  14
2026 08 19 05  23 24 42.709   +09 22 38.98  .59728 1.5515 148.1 21.3 2.05  14
2026 08 19 06  23 24 43.113   +09 22 32.70  .59712 1.5515 148.1 21.3 2.09  14
2026 08 19 07  23 24 43.513   +09 22 26.36  .59696 1.5514 148.1 21.3 2.13  14
2026 08 19 08  23 24 43.911   +09 22 19.97  .59679 1.5514 148.2 21.3 2.16  14
2026 08 19 09  23 24 44.306   +09 22 13.54  .59663 1.5514 148.2 21.3 2.20  14
2026 08 19 10  23 24 44.698   +09 22 07.05  .59647 1.5514 148.3 21.3 2.24  14
2026 08 19 11  23 24 45.086   +09 22 00.52  .59631 1.5513 148.3 21.3 2.28  14
2026 08 19 12  23 24 45.472   +09 21 53.94  .59615 1.5513 148.3 21.3 2.31  14
2026 08 19 13  23 24 45.855   +09 21 47.31  .59598 1.5513 148.4 21.3 2.35  14
2026 08 19 14  23 24 46.235   +09 21 40.63  .59582 1.5512 148.4 21.3 2.39  14
2026 08 19 15  23 24 46.612   +09 21 33.90  .59566 1.5512 148.4 21.3 2.43  15
2026 08 19 16  23 24 46.987   +09 21 27.12  .59550 1.5512 148.5 21.3 2.47  15
2026 08 19 17  23 24 47.358   +09 21 20.29  .59534 1.5512 148.5 21.3 2.51  15
2026 08 19 18  23 24 47.726   +09 21 13.42  .59518 1.5511 148.6 21.3 2.55  15
2026 08 19 19  23 24 48.091   +09 21 06.49  .59502 1.5511 148.6 21.3 2.59  15
2026 08 19 20  23 24 48.454   +09 20 59.52  .59486 1.5511 148.6 21.2 2.63  15
2026 08 19 21  23 24 48.813   +09 20 52.49  .59470 1.5510 148.7 21.2 2.67  15
2026 08 19 22  23 24 49.170   +09 20 45.42  .59454 1.5510 148.7 21.2 2.72  15
2026 08 19 23  23 24 49.523   +09 20 38.30  .59438 1.5510 148.7 21.2 2.76  15